[[{"header":{"parameterUnit":"m.s-1","parameterCategory":1,"la1":30.2991,"la2":30.254,"lo1":-89.0895,"lo2":-89.0444,"dy":0.0017,"dx":0.0017,"nx":28,"ny":28,"refTime":"2024-09-03T21:00:00:Z","depth":0,"parameterNumber":2,"parameterNumberName":"U-component_of_WINDS"},"data":[0,0,0,0,0,0,0,0,0,0,0,0,0,0,0,0,0,0,0,0,0,0,0,0,0,0,0,0,0,0,0,0,0,0,0,0,0,0,0,0,0,0,0,0,0,0,0,0,0,0,0,0,0,0,0,0,0,0,-5.7159,-5.7159,0,-5.7178,-5.7178,-5.7178,-5.6961,-5.6955,-5.6949,-5.6943,-5.6965,-5.6971,-5.6977,0,0,0,0,0,0,0,0,0,0,0,0,0,-5.694,-5.6945,-5.7159,-5.716,-5.716,-5.7177,-5.7178,-5.7178,-5.6962,-5.6955,-5.6947,-5.6941,-5.6963,-5.697,-5.6977,0,0,0,0,0,0,0,0,0,0,0,0,0,-5.7005,-5.6947,-5.7159,-5.7054,-5.7045,-5.7177,-5.7178,-5.7178,-5.6963,-5.6954,-5.6945,-5.6937,-5.696,-5.6969,-5.6978,-5.7214,0,0,-5.7006,-5.701,0,0,0,0,0,0,0,0,-5.7001,-5.7013,-5.7069,-5.7061,-5.7051,-5.7058,-5.7108,-5.719,-5.6966,-5.6994,-5.6943,-5.6933,-5.7003,-5.7008,-5.7031,-5.7215,-5.7216,-5.7007,-5.7013,-5.7017,-5.7019,0,0,0,0,0,0,0,-5.6997,-5.7011,-5.7166,-5.707,-5.7059,-5.7007,-5.7006,-5.7123,-5.7049,-5.6991,-5.6975,-5.698,-5.6996,-5.7023,-5.703,-5.7216,-5.7007,-5.7015,-5.7021,-5.7024,-5.7595,-5.7604,0,0,0,0,0,0,-5.7006,-5.7008,-5.7166,-5.7167,-5.7004,-5.7018,-5.7017,-5.7065,-5.7047,-5.7035,-5.6988,-5.697,-5.7012,-5.702,-5.703,-5.7306,-5.7017,-5.7025,-5.7031,-5.7585,-5.7597,-5.7607,0,0,0,0,0,0,-5.7002,-5.7022,-5.7165,-5.7084,-5.7098,-5.7031,-5.7086,-5.707,-5.7096,-5.7044,-5.703,-5.7029,-5.7005,-5.7017,-5.717,-5.7303,-5.7029,-5.7038,-5.7574,-5.7589,-5.7602,-5.7859,0,0,0,0,0,0,-5.6997,-5.7022,-5.7111,-5.7087,-5.7103,-5.7305,-5.7094,-5.7077,-5.7112,-5.7089,-5.7079,-5.7068,-5.6999,-5.7157,-5.7179,-5.7311,-5.7045,-5.7562,-5.758,-5.7597,-5.7838,-5.788,-5.7916,0,0,0,0,0,-5.699,-5.7182,-5.7116,-5.7136,-5.7212,-5.7313,-5.7322,-5.7237,-5.7124,-5.7212,-5.7179,-5.7069,-5.7285,-5.7175,-5.7197,-5.7334,-5.7553,-5.7575,-5.7596,-5.7821,-5.7872,-5.7915,0,0,0,0,0,0,-5.7224,-5.7177,-5.7103,-5.7294,-5.7309,-5.7276,-5.7385,-5.7294,-5.7342,-5.7319,-5.7212,-5.7212,-5.7382,-5.7373,-5.7251,-5.7562,-5.7399,-5.7426,-5.7562,-5.761,-5.7649,-5.7648,-5.7053,0,0,0,0,0,-5.7298,-5.7383,-5.7337,-5.751,-5.7521,-5.7453,-5.7493,-5.7427,-5.7438,-5.7444,-5.7422,-5.7438,-5.7509,-5.7559,-5.7622,-5.7835,-5.7831,-5.794,-5.7979,-5.8012,-5.8037,-5.8151,-5.82,-5.7679,-5.7678,-5.7678,0,0,-5.7451,-5.7436,-5.7496,-5.7557,-5.756,-5.7652,-5.7459,-5.7564,-5.7632,-5.746,-5.7603,-5.7588,-5.7599,-5.7784,-5.7863,-5.7781,-5.818,-5.8039,-5.8066,-5.8073,-5.8178,-5.8228,-5.8272,-5.7693,-5.7691,-5.7688,0,0,-5.7777,-5.7774,-5.7918,-5.7926,-5.7934,-5.7887,-5.7922,-5.7903,-5.7886,-5.8027,-5.7901,-5.798,-5.8105,-5.8118,-5.8142,-5.8474,-5.8375,-5.8498,-5.8703,-5.8815,-5.8856,-5.8892,-5.9012,-5.9057,-5.8523,-5.8523,-5.8524,0,-5.7967,-5.81,-5.8004,-5.8118,-5.8149,-5.7996,-5.8142,-5.8154,-5.8184,-5.8209,-5.8115,-5.827,-5.8266,-5.8453,-5.8534,-5.8557,-5.8595,-5.8499,-5.8857,-5.8893,-5.8925,-5.9039,-5.9084,-5.8538,-5.8537,-5.8535,-5.8534,0,-5.8334,-5.8428,-5.8543,-5.8574,-5.8618,-5.8748,-5.8672,-5.8728,-5.8658,-5.8621,-5.8768,-5.8759,-5.8818,-5.8856,-5.8789,-5.9035,-5.8983,-5.8876,-5.871,-5.8991,-5.9096,-5.9139,-5.856,-5.8554,-5.855,-5.8546,0,0,-5.8809,-5.8786,-5.883,-5.8843,-5.8841,-5.8912,-5.9035,-5.9092,-5.9143,-5.9168,-5.9269,-5.9379,-5.9279,-5.9306,-5.9239,-5.9337,-5.9604,-5.9217,-5.9216,-5.9291,-5.9876,-5.9958,-6.001,-5.9537,-5.9545,-5.9551,-5.9875,0,-5.9128,-5.9336,-5.9254,-5.947,-5.9556,-5.9413,-5.952,-5.9532,-5.9501,-5.957,-5.9535,-5.9616,-5.9478,-5.9493,-5.9584,-5.9552,-5.972,-5.9527,-5.9633,-5.9637,-5.9636,-6.0065,-6.0152,-6.0458,-5.9916,-5.9922,-5.9927,0,-5.9529,-5.957,-5.9795,-5.9778,-5.9811,-5.991,-5.9956,-6.0023,-6.0033,-6.0004,-6.0035,-5.9946,-6.0066,-5.9901,-6.0066,-5.9937,-5.9975,-5.9966,-5.9976,-5.9984,-5.9801,-6.0087,-6.0554,-6.0601,-5.9991,-5.9986,-5.9981,0,-5.9856,-5.9967,-6.0116,-6.0131,-6.0116,-6.0188,-6.0185,-6.0186,-6.0226,-6.0266,-6.0291,-6.0346,-6.0377,-6.0421,-6.035,-6.0236,-6.0527,-6.0355,-6.0508,-6.051,-6.0577,-6.0575,-6.106,-6.0599,-6.0598,-6.0598,-6.0597,0,-6.0222,-6.0366,-6.0263,-6.0355,-6.0512,-6.0416,-6.0574,-6.0555,-6.0558,-6.0644,-6.0523,-6.0608,-6.0507,-6.0582,-6.0527,-6.0674,-6.0688,-6.0669,-6.0653,-6.0681,-6.0684,-6.0706,-6.0684,-6.061,-6.0607,-6.0605,-6.0603,0,-6.0615,-6.0551,-6.0705,-6.0677,-6.0673,-6.0791,-6.0767,-6.0852,-6.0812,-6.0924,-6.0944,-6.0883,-6.0965,-6.0898,-6.0978,-6.0941,-6.1136,-6.1089,-6.1133,-6.1121,-6.1279,-6.1266,-6.1796,-6.1862,-6.1358,-6.1363,-6.1367,0,-6.0854,-6.0961,-6.0945,-6.0994,-6.0998,-6.1079,-6.1119,-6.1028,-6.1075,-6.1095,-6.1179,-6.125,-6.1302,-6.1441,-6.1404,-6.1465,-6.1419,-6.1601,-6.1428,-6.1453,-6.1425,-6.142,-6.1431,-6.1637,-6.1643,-6.1648,-6.1652,0,-6.1285,-6.1249,-6.131,-6.1363,-6.1414,-6.1451,-6.1478,-6.1526,-6.1433,-6.1492,-6.1575,-6.1616,-6.1697,-6.1771,-6.1819,-6.1816,-6.1721,-6.1707,-6.1745,-6.1776,-6.1799,-6.1791,-6.1231,-6.1695,-6.1691,-6.1688,-6.1685,-6.1684,-6.1609,-6.1698,-6.1701,-6.1775,-6.1786,-6.1814,-6.1893,-6.1863,-6.193,-6.1989,-6.1931,-6.2032,-6.204,-6.2095,-6.2104,-6.2182,-6.2107,-6.2163,-6.2177,-6.2193,-6.2217,-6.1785,-6.219,-6.2189,-6.2187,-6.2186,-6.2185,0,-6.2036,-6.2031,-6.2099,-6.2141,-6.22,-6.2103,-6.2128,-6.2184,-6.2273,-6.2288,-6.2343,-6.2438,-6.2509,-6.2478,-6.254,-6.2609,-6.2567,-6.2628,-6.2624,-6.2625,-6.2279,-6.224,-6.2662,-6.2662,-6.2662,-6.2661,-6.2661,-6.2661,-6.2265,-6.2411,-6.2376,-6.2527,-6.252,-6.2617,-6.264,-6.2666,-6.2678,-6.279,-6.2848,-6.2827,-6.2824,-6.2885,-6.2946,-6.2935,-6.2965,-6.3044,-6.3018,-6.2696,-6.2649,-6.2604,-6.2567,-6.305,-6.3051,-6.3356,-6.3359,-6.3361]},{"header":{"parameterUnit":"m.s-1","parameterCategory":1,"la1":30.2991,"la2":30.254,"lo1":-89.0895,"lo2":-89.0444,"dy":0.0017,"dx":0.0017,"nx":28,"ny":28,"refTime":"2024-09-03T21:00:00:Z","depth":0,"parameterNumber":3,"parameterNumberName":"V-component_of_WINDS"},"data":[0,0,0,0,0,0,0,0,0,0,0,0,0,0,0,0,0,0,0,0,0,0,0,0,0,0,0,0,0,0,0,0,0,0,0,0,0,0,0,0,0,0,0,0,0,0,0,0,0,0,0,0,0,0,0,0,0,0,-3.4821,-3.4821,0,-3.4795,-3.4795,-3.4794,-3.4725,-3.4724,-3.4722,-3.4721,-3.4693,-3.4694,-3.4694,0,0,0,0,0,0,0,0,0,0,0,0,0,-3.4809,-3.481,-3.4821,-3.4821,-3.4821,-3.4795,-3.4795,-3.4794,-3.4725,-3.4723,-3.4722,-3.472,-3.4693,-3.4694,-3.4695,0,0,0,0,0,0,0,0,0,0,0,0,0,-3.4802,-3.481,-3.4821,-3.4783,-3.4779,-3.4795,-3.4795,-3.4794,-3.4726,-3.4723,-3.4721,-3.4719,-3.4693,-3.4694,-3.4695,-3.4745,0,0,-3.4698,-3.4698,0,0,0,0,0,0,0,0,-3.4803,-3.4803,-3.4789,-3.4786,-3.4782,-3.4761,-3.478,-3.4778,-3.4726,-3.4746,-3.4721,-3.4718,-3.4718,-3.4716,-3.4716,-3.4744,-3.4743,-3.4698,-3.4698,-3.4699,-3.4699,0,0,0,0,0,0,0,-3.4803,-3.4803,-3.4811,-3.4789,-3.4784,-3.4766,-3.4763,-3.478,-3.4745,-3.4744,-3.4739,-3.4737,-3.4715,-3.4716,-3.4715,-3.4742,-3.4698,-3.4699,-3.4699,-3.47,-3.4807,-3.4809,0,0,0,0,0,0,-3.4809,-3.4804,-3.4812,-3.481,-3.4787,-3.4769,-3.4765,-3.477,-3.4744,-3.4738,-3.4739,-3.4734,-3.4715,-3.4714,-3.4714,-3.4769,-3.4699,-3.47,-3.47,-3.4805,-3.4807,-3.481,0,0,0,0,0,0,-3.4809,-3.4811,-3.4813,-3.4806,-3.4805,-3.4771,-3.4778,-3.4771,-3.4771,-3.474,-3.4733,-3.4746,-3.4713,-3.4713,-3.4737,-3.4767,-3.47,-3.4701,-3.4802,-3.4805,-3.4809,-3.4882,0,0,0,0,0,0,-3.4809,-3.4811,-3.4831,-3.4807,-3.4805,-3.4838,-3.4779,-3.4772,-3.4773,-3.4766,-3.4745,-3.4739,-3.4711,-3.4736,-3.4738,-3.4767,-3.4702,-3.4799,-3.4803,-3.4807,-3.4877,-3.4887,-3.4897,0,0,0,0,0,-3.4809,-3.4853,-3.4832,-3.4833,-3.4829,-3.4839,-3.4839,-3.4806,-3.4776,-3.4794,-3.4774,-3.474,-3.4764,-3.4739,-3.4741,-3.4771,-3.4797,-3.4802,-3.4807,-3.4872,-3.4885,-3.4896,0,0,0,0,0,0,-3.4882,-3.4849,-3.4826,-3.4863,-3.4854,-3.4828,-3.4851,-3.4821,-3.4821,-3.4814,-3.4773,-3.4769,-3.4799,-3.4787,-3.4761,-3.4817,-3.4775,-3.478,-3.4823,-3.4836,-3.4845,-3.4847,-3.4703,0,0,0,0,0,-3.4902,-3.4914,-3.4884,-3.492,-3.4917,-3.4885,-3.4888,-3.4863,-3.4853,-3.4849,-3.483,-3.4821,-3.4826,-3.483,-3.4834,-3.4875,-3.4868,-3.4896,-3.4906,-3.4914,-3.4919,-3.4938,-3.4949,-3.4827,-3.4826,-3.4826,0,0,-3.4944,-3.4928,-3.4938,-3.4934,-3.4925,-3.4936,-3.4882,-3.4898,-3.4906,-3.4851,-3.4872,-3.4859,-3.4845,-3.4878,-3.4892,-3.4869,-3.4952,-3.4921,-3.4928,-3.4928,-3.4944,-3.4956,-3.4966,-3.483,-3.4829,-3.4829,0,0,-3.5027,-3.5017,-3.5044,-3.5035,-3.5021,-3.4999,-3.5005,-3.4983,-3.4971,-3.4992,-3.4951,-3.4959,-3.497,-3.4961,-3.4958,-3.5035,-3.5003,-3.5037,-3.5089,-3.5108,-3.5117,-3.5126,-3.5151,-3.5161,-3.5043,-3.5043,-3.5043,0,-3.5081,-3.5098,-3.5062,-3.5079,-3.5078,-3.5028,-3.5055,-3.5048,-3.5036,-3.5036,-3.5011,-3.5021,-3.5009,-3.5038,-3.5056,-3.5056,-3.5061,-3.5039,-3.5119,-3.5127,-3.5134,-3.5158,-3.5168,-3.5047,-3.5047,-3.5046,-3.5046,0,-3.5164,-3.5176,-3.52,-3.5188,-3.519,-3.5212,-3.5178,-3.5184,-3.5159,-3.5139,-3.516,-3.5143,-3.5141,-3.5146,-3.5122,-3.517,-3.5157,-3.5127,-3.5083,-3.5151,-3.5172,-3.5181,-3.5053,-3.5052,-3.505,-3.5049,0,0,-3.5292,-3.5259,-3.5269,-3.5262,-3.5242,-3.525,-3.5269,-3.5266,-3.5271,-3.5264,-3.5278,-3.5287,-3.5257,-3.5254,-3.5228,-3.5245,-3.5304,-3.5212,-3.5211,-3.5228,-3.5354,-3.5376,-3.5388,-3.5283,-3.5284,-3.5286,-3.5355,0,-3.5369,-3.54,-3.5367,-3.5404,-3.5413,-3.5365,-3.5381,-3.537,-3.5352,-3.5356,-3.5336,-3.5342,-3.5304,-3.5301,-3.5315,-3.5294,-3.5329,-3.5289,-3.5294,-3.5294,-3.5298,-3.5399,-3.5424,-3.549,-3.5363,-3.5365,-3.5366,0,-3.5462,-3.5459,-3.5497,-3.5472,-3.5474,-3.549,-3.5483,-3.5489,-3.5475,-3.546,-3.5455,-3.5424,-3.5439,-3.5397,-3.5417,-3.539,-3.539,-3.538,-3.5381,-3.538,-3.5334,-3.5399,-3.551,-3.552,-3.5379,-3.5378,-3.5377,0,-3.555,-3.5555,-3.5577,-3.5573,-3.5545,-3.5557,-3.5545,-3.5529,-3.5529,-3.5523,-3.5522,-3.5519,-3.5517,-3.5514,-3.5482,-3.5455,-3.5505,-3.5461,-3.5492,-3.5492,-3.5504,-3.5503,-3.5615,-3.5506,-3.5506,-3.5506,-3.5506,0,-3.5638,-3.5663,-3.5616,-3.563,-3.5655,-3.5616,-3.5643,-3.5626,-3.5612,-3.562,-3.5579,-3.5588,-3.5545,-3.555,-3.5524,-3.5543,-3.5543,-3.553,-3.5523,-3.5534,-3.5535,-3.5532,-3.5527,-3.5508,-3.5508,-3.5507,-3.5507,0,-3.574,-3.571,-3.5731,-3.5702,-3.5696,-3.5716,-3.5691,-3.5701,-3.568,-3.5691,-3.5692,-3.5657,-3.566,-3.5627,-3.5624,-3.5607,-3.5637,-3.5622,-3.5642,-3.5636,-3.5669,-3.5665,-3.5782,-3.5794,-3.5679,-3.568,-3.5681,0,-3.5798,-3.5816,-3.5789,-3.5791,-3.5782,-3.5788,-3.5787,-3.5749,-3.575,-3.5733,-3.5746,-3.5745,-3.5742,-3.5748,-3.5722,-3.5718,-3.5702,-3.5743,-3.5702,-3.5711,-3.5701,-3.57,-3.5701,-3.5752,-3.5753,-3.5754,-3.5755,0,-3.5903,-3.5887,-3.5887,-3.5882,-3.5882,-3.5877,-3.5868,-3.5873,-3.5831,-3.5834,-3.5835,-3.5833,-3.5828,-3.5827,-3.5819,-3.5806,-3.5773,-3.5769,-3.5775,-3.5786,-3.5796,-3.5789,-3.5664,-3.5766,-3.5765,-3.5764,-3.5764,-3.5763,-3.5984,-3.5996,-3.5979,-3.598,-3.5969,-3.5962,-3.597,-3.5948,-3.5949,-3.5943,-3.592,-3.5925,-3.5908,-3.5893,-3.5883,-3.5885,-3.5865,-3.5875,-3.5878,-3.5881,-3.5886,-3.5796,-3.5884,-3.5883,-3.5883,-3.5883,-3.5883,0,-3.6086,-3.6071,-3.6073,-3.6062,-3.6062,-3.6031,-3.602,-3.6022,-3.6027,-3.6014,-3.6012,-3.6012,-3.6011,-3.5984,-3.5979,-3.5986,-3.5971,-3.5986,-3.5984,-3.5982,-3.5905,-3.5899,-3.5998,-3.5998,-3.5998,-3.5998,-3.5998,-3.5998,-3.6139,-3.6157,-3.6139,-3.6151,-3.6136,-3.6141,-3.6137,-3.6129,-3.6118,-3.6121,-3.6119,-3.6101,-3.6082,-3.6075,-3.6071,-3.6063,-3.6062,-3.6082,-3.6069,-3.5998,-3.5987,-3.5977,-3.5971,-3.6083,-3.6083,-3.6145,-3.6146,-3.6146]}]]